BCS5706 LROP-EDDP

Flight info

Callsign BCS5706
Flight time 1h 51m
Altitude 32000
Route BUKEL DCT PELUR DCT MOBRA DCT PITOK DCT OMIFU DCT ODLIV DCT LEGAZ DCT BEFRE DCT IVQOQ T951 YAWOY YAWOY1R
Aircraft A306/H-SDE3FGHIRWY/LB1

Departure

Time 2026-05-07 19:14
Airport Bucharest Henri Coandă International Airport (LROP)

Arrival

Time 2026-05-07 21:05
Airport Leipzig/Halle Airport (EDDP)
Time Latitude Longitude Altitude Speed Heading
2026-05-07 18:39 44.56961 26.10279 301 ft 0 kts 174°
2026-05-07 18:59 44.56969 26.10278 325 ft 4 kts 174°
2026-05-07 18:59 44.56996 26.10274 324 ft 4 kts 174°
2026-05-07 18:59 44.57019 26.10271 325 ft 3 kts 174°
2026-05-07 19:00 44.57041 26.10275 328 ft 4 kts 226°
2026-05-07 19:00 44.57052 26.10306 324 ft 3 kts 264°
2026-05-07 19:00 44.57055 26.10341 324 ft 3 kts 264°
2026-05-07 19:00 44.57055 26.10344 324 ft 0 kts 264°
2026-05-07 19:04 44.57055 26.10342 324 ft 1 kts 264°
2026-05-07 19:05 44.57051 26.10297 324 ft 8 kts 263°
2026-05-07 19:05 44.57043 26.10190 327 ft 12 kts 263°
2026-05-07 19:05 44.57034 26.10080 327 ft 11 kts 264°
2026-05-07 19:05 44.57033 26.09950 327 ft 14 kts 295°
2026-05-07 19:06 44.57113 26.09898 325 ft 12 kts 353°
2026-05-07 19:06 44.57287 26.09872 327 ft 15 kts 354°
2026-05-07 19:06 44.57395 26.09856 327 ft 15 kts 354°
2026-05-07 19:07 44.57497 26.09841 327 ft 14 kts 354°
2026-05-07 19:07 44.57581 26.09808 327 ft 12 kts 316°
2026-05-07 19:07 44.57585 26.09715 325 ft 9 kts 263°
2026-05-07 19:07 44.57579 26.09631 327 ft 9 kts 264°
2026-05-07 19:08 44.57570 26.09517 328 ft 15 kts 264°
2026-05-07 19:08 44.57558 26.09362 328 ft 16 kts 264°
2026-05-07 19:08 44.57547 26.09215 326 ft 14 kts 264°
2026-05-07 19:08 44.57537 26.09078 327 ft 14 kts 264°
2026-05-07 19:09 44.57526 26.08941 327 ft 14 kts 264°
2026-05-07 19:09 44.57516 26.08807 327 ft 14 kts 264°
2026-05-07 19:09 44.57505 26.08671 327 ft 14 kts 264°
2026-05-07 19:09 44.57495 26.08543 326 ft 12 kts 264°
2026-05-07 19:10 44.57535 26.08466 325 ft 9 kts 339°
2026-05-07 19:10 44.57546 26.08463 326 ft 0 kts 352°
2026-05-07 19:11 44.57554 26.08461 329 ft 5 kts 352°
2026-05-07 19:11 44.57599 26.08453 324 ft 6 kts 353°
2026-05-07 19:12 44.57639 26.08447 325 ft 5 kts 356°
2026-05-07 19:12 44.57650 26.08459 326 ft 2 kts 45°
2026-05-07 19:12 44.57660 26.08481 327 ft 4 kts 62°
2026-05-07 19:12 44.57668 26.08524 326 ft 8 kts 82°
2026-05-07 19:13 44.57685 26.08750 324 ft 52 kts 84°
2026-05-07 19:13 44.57746 26.09561 328 ft 113 kts 84°
2026-05-07 19:13 44.57850 26.10917 326 ft 166 kts 84°
2026-05-07 19:13 44.57975 26.12728 585 ft 198 kts 85°
2026-05-07 19:14 44.58108 26.14597 1599 ft 189 kts 86°
2026-05-07 19:14 44.58232 26.16415 2487 ft 189 kts 86°
2026-05-07 19:14 44.58362 26.18293 3164 ft 201 kts 85°
2026-05-07 19:14 44.58517 26.20225 4053 ft 195 kts 84°
2026-05-07 19:15 44.58671 26.22099 4938 ft 193 kts 84°
2026-05-07 19:15 44.58823 26.24018 5510 ft 210 kts 84°
2026-05-07 19:15 44.58989 26.26189 5854 ft 235 kts 85°
2026-05-07 19:15 44.59168 26.28571 6209 ft 258 kts 85°
2026-05-07 19:16 44.59363 26.31199 6523 ft 282 kts 85°
2026-05-07 19:16 44.59639 26.33969 7219 ft 290 kts 76°
2026-05-07 19:16 44.60479 26.36538 8059 ft 293 kts 52°
2026-05-07 19:16 44.62026 26.38374 8915 ft 295 kts 25°
2026-05-07 19:17 44.63997 26.39079 9743 ft 295 kts 358°
2026-05-07 19:17 44.65997 26.38522 10391 ft 299 kts 334°
2026-05-07 19:17 44.67832 26.36998 10703 ft 316 kts 326°
2026-05-07 19:17 44.69911 26.35711 10948 ft 338 kts 340°
2026-05-07 19:18 44.72201 26.34654 11205 ft 355 kts 340°
2026-05-07 19:18 44.74606 26.33575 11456 ft 371 kts 341°
2026-05-07 19:18 44.77099 26.32454 11874 ft 380 kts 341°
2026-05-07 19:18 44.79629 26.31290 12443 ft 385 kts 339°
2026-05-07 19:19 44.82034 26.29614 12924 ft 388 kts 323°
2026-05-07 19:19 44.83940 26.26949 13496 ft 388 kts 305°
2026-05-07 19:19 44.85437 26.23769 14042 ft 391 kts 300°
2026-05-07 19:19 44.86849 26.20536 14561 ft 394 kts 300°
2026-05-07 19:20 44.88289 26.17226 15128 ft 396 kts 300°
2026-05-07 19:20 44.89739 26.13908 15690 ft 399 kts 300°
2026-05-07 19:20 44.91198 26.10576 16268 ft 401 kts 300°
2026-05-07 19:20 44.92671 26.07216 16813 ft 404 kts 300°
2026-05-07 19:21 44.94154 26.03833 17380 ft 406 kts 300°
2026-05-07 19:21 44.95644 26.00434 17885 ft 410 kts 300°
2026-05-07 19:21 44.97148 25.96997 18393 ft 413 kts 300°
2026-05-07 19:21 44.98657 25.93546 18885 ft 414 kts 300°
2026-05-07 19:22 45.00173 25.90077 19327 ft 416 kts 300°
2026-05-07 19:22 45.01698 25.86582 19755 ft 419 kts 300°
2026-05-07 19:22 45.03236 25.83053 20162 ft 422 kts 300°
2026-05-07 19:22 45.04779 25.79510 20575 ft 425 kts 300°
2026-05-07 19:23 45.06341 25.75947 20985 ft 427 kts 302°
2026-05-07 19:23 45.08138 25.72586 21354 ft 432 kts 310°
2026-05-07 19:23 45.10313 25.69605 21710 ft 437 kts 317°
2026-05-07 19:23 45.12641 25.66808 22104 ft 440 kts 319°
2026-05-07 19:24 45.15043 25.64096 22517 ft 443 kts 320°
2026-05-07 19:24 45.17480 25.61408 22892 ft 445 kts 321°
2026-05-07 19:24 45.19931 25.58704 23259 ft 448 kts 320°
2026-05-07 19:24 45.22393 25.55965 23617 ft 450 kts 320°
2026-05-07 19:25 45.24852 25.53200 23907 ft 453 kts 320°
2026-05-07 19:25 45.27319 25.50404 24212 ft 454 kts 320°
2026-05-07 19:25 45.29788 25.47586 24458 ft 458 kts 319°
2026-05-07 19:25 45.32272 25.44746 24755 ft 458 kts 319°
2026-05-07 19:26 45.34756 25.41904 25103 ft 459 kts 319°
2026-05-07 19:26 45.37242 25.39054 25366 ft 461 kts 319°
2026-05-07 19:26 45.39744 25.36182 25636 ft 463 kts 319°
2026-05-07 19:26 45.42251 25.33300 25902 ft 464 kts 319°
2026-05-07 19:27 45.44767 25.30404 26157 ft 466 kts 319°
2026-05-07 19:27 45.47293 25.27494 26417 ft 468 kts 319°
2026-05-07 19:27 45.49833 25.24567 26589 ft 471 kts 319°
2026-05-07 19:27 45.52382 25.21626 26807 ft 473 kts 319°
2026-05-07 19:28 45.54909 25.18707 27041 ft 474 kts 319°
2026-05-07 19:28 45.57471 25.15741 27287 ft 475 kts 319°
2026-05-07 19:28 45.60042 25.12762 27550 ft 477 kts 319°
2026-05-07 19:28 45.62618 25.09775 27861 ft 476 kts 318°
2026-05-07 19:29 45.65188 25.06791 28121 ft 477 kts 318°
2026-05-07 19:29 45.67758 25.03804 28426 ft 476 kts 318°
2026-05-07 19:29 45.70326 25.00817 28696 ft 476 kts 318°
2026-05-07 19:29 45.72899 24.97821 28966 ft 476 kts 318°
2026-05-07 19:30 45.75463 24.94830 29266 ft 476 kts 318°
2026-05-07 19:30 45.78028 24.91833 29569 ft 475 kts 318°
2026-05-07 19:30 45.80583 24.88845 29877 ft 474 kts 318°
2026-05-07 19:30 45.83132 24.85859 30170 ft 473 kts 317°
2026-05-07 19:31 45.85646 24.82822 30456 ft 471 kts 314°
2026-05-07 19:31 45.87898 24.79435 30749 ft 467 kts 309°
2026-05-07 19:31 45.90060 24.75969 31090 ft 464 kts 308°
2026-05-07 19:31 45.92171 24.72488 31433 ft 461 kts 307°
2026-05-07 19:32 45.94256 24.68992 31752 ft 459 kts 307°
2026-05-07 19:32 45.96322 24.65505 31987 ft 459 kts 306°
2026-05-07 19:32 46.00373 24.58663 32026 ft 438 kts 306°
2026-05-07 19:33 46.04287 24.52050 32024 ft 432 kts 306°
2026-05-07 19:33 46.08185 24.45451 32019 ft 434 kts 306°
2026-05-07 19:34 46.12099 24.38819 32020 ft 435 kts 306°
2026-05-07 19:34 46.16013 24.32171 32023 ft 435 kts 306°
2026-05-07 19:35 46.19928 24.25512 32023 ft 435 kts 306°
2026-05-07 19:35 46.23840 24.18842 32024 ft 435 kts 306°
2026-05-07 19:36 46.27713 24.12221 32022 ft 435 kts 306°
2026-05-07 19:36 46.31616 24.05534 32027 ft 435 kts 306°
2026-05-07 19:37 46.35508 23.98845 32018 ft 435 kts 306°
2026-05-07 19:37 46.39403 23.92137 32033 ft 435 kts 306°
2026-05-07 19:38 46.43300 23.85407 32027 ft 437 kts 306°
2026-05-07 19:38 46.47208 23.78643 32023 ft 437 kts 306°
2026-05-07 19:39 46.51108 23.71877 32027 ft 437 kts 306°
2026-05-07 19:39 46.54349 23.66244 32034 ft 437 kts 306°
2026-05-07 19:40 46.58901 23.58311 32044 ft 437 kts 306°
2026-05-07 19:40 46.62789 23.51514 32044 ft 437 kts 305°
2026-05-07 19:41 46.66676 23.44706 32045 ft 437 kts 305°
2026-05-07 19:41 46.70558 23.37889 32040 ft 437 kts 305°
2026-05-07 19:42 46.74430 23.31072 32045 ft 436 kts 306°
2026-05-07 19:42 46.78281 23.24276 32040 ft 434 kts 305°
2026-05-07 19:43 46.82119 23.17483 32043 ft 434 kts 305°
2026-05-07 19:43 46.85959 23.10672 32038 ft 434 kts 305°
2026-05-07 19:44 46.89794 23.03853 32045 ft 434 kts 305°
2026-05-07 19:44 46.93619 22.97032 32038 ft 433 kts 305°
2026-05-07 19:45 46.97437 22.90205 32040 ft 433 kts 305°
2026-05-07 19:45 47.01224 22.83419 32039 ft 433 kts 305°
2026-05-07 19:46 47.05038 22.76571 32033 ft 433 kts 305°
2026-05-07 19:46 47.08845 22.69718 32032 ft 434 kts 305°
2026-05-07 19:47 47.12655 22.62838 32033 ft 435 kts 305°
2026-05-07 19:47 47.16461 22.55950 32031 ft 435 kts 305°
2026-05-07 19:48 47.19656 22.50157 32025 ft 435 kts 305°
2026-05-07 19:48 47.23431 22.43294 32050 ft 435 kts 304°
2026-05-07 19:49 47.27243 22.36344 32027 ft 438 kts 304°
2026-05-07 19:49 47.31066 22.29358 32028 ft 438 kts 304°
2026-05-07 19:50 47.34891 22.22352 32024 ft 438 kts 304°
2026-05-07 19:50 47.38702 22.15354 32024 ft 438 kts 304°
2026-05-07 19:51 47.42516 22.08332 32021 ft 439 kts 304°
2026-05-07 19:51 47.46335 22.01280 32019 ft 440 kts 304°
2026-05-07 19:52 47.50156 21.94207 32018 ft 440 kts 304°
2026-05-07 19:52 47.53969 21.87132 32020 ft 440 kts 304°
2026-05-07 19:53 47.57783 21.80035 32023 ft 440 kts 303°
2026-05-07 19:53 47.61583 21.72950 32021 ft 439 kts 303°
2026-05-07 19:54 47.65372 21.65864 32020 ft 439 kts 303°
2026-05-07 19:54 47.69157 21.58764 32019 ft 439 kts 303°
2026-05-07 19:55 47.72946 21.51639 32018 ft 440 kts 303°
2026-05-07 19:55 47.76735 21.44498 32014 ft 440 kts 303°
2026-05-07 19:56 47.80516 21.37353 32015 ft 439 kts 303°
2026-05-07 19:56 47.84290 21.30201 32015 ft 439 kts 303°
2026-05-07 19:57 47.88062 21.23035 32012 ft 439 kts 303°
2026-05-07 19:57 47.91823 21.15870 32013 ft 439 kts 303°
2026-05-07 19:58 47.95582 21.08691 32012 ft 439 kts 303°
2026-05-07 19:58 47.99339 21.01496 32011 ft 439 kts 303°
2026-05-07 19:59 48.03089 20.94295 32012 ft 439 kts 303°
2026-05-07 19:59 48.06837 20.87079 32012 ft 441 kts 303°
2026-05-07 20:00 48.10567 20.79877 32016 ft 440 kts 302°
2026-05-07 20:00 48.14309 20.72636 32014 ft 439 kts 302°
2026-05-07 20:01 48.18050 20.65398 32012 ft 440 kts 302°
2026-05-07 20:01 48.21797 20.58155 32015 ft 440 kts 302°
2026-05-07 20:02 48.25541 20.50890 32016 ft 440 kts 302°
2026-05-07 20:02 48.29279 20.43605 32021 ft 441 kts 302°
2026-05-07 20:03 48.33022 20.36291 32012 ft 441 kts 302°
2026-05-07 20:03 48.36761 20.28965 32019 ft 441 kts 301°
2026-05-07 20:04 48.40491 20.21637 32017 ft 442 kts 301°
2026-05-07 20:04 48.44229 20.14272 32021 ft 443 kts 301°
2026-05-07 20:05 48.47962 20.06898 32019 ft 443 kts 301°
2026-05-07 20:05 48.51688 19.99518 32016 ft 442 kts 301°
2026-05-07 20:06 48.55410 19.92127 32019 ft 442 kts 301°
2026-05-07 20:06 48.59133 19.84723 32023 ft 443 kts 300°
2026-05-07 20:07 48.62846 19.77303 32020 ft 443 kts 300°
2026-05-07 20:07 48.66555 19.69868 32019 ft 442 kts 300°
2026-05-07 20:08 48.70253 19.62435 32025 ft 442 kts 300°
2026-05-07 20:08 48.73952 19.54986 32021 ft 443 kts 300°
2026-05-07 20:09 48.77652 19.47513 32019 ft 444 kts 300°
2026-05-07 20:10 48.83198 19.36266 32022 ft 446 kts 300°
2026-05-07 20:10 48.86932 19.28674 32014 ft 446 kts 300°
2026-05-07 20:11 48.90602 19.21172 32022 ft 445 kts 300°
2026-05-07 20:11 48.94310 19.13605 32021 ft 447 kts 300°
2026-05-07 20:12 48.98028 19.05987 32025 ft 449 kts 300°
2026-05-07 20:12 49.01746 18.98339 32017 ft 449 kts 300°
2026-05-07 20:13 49.05453 18.90696 32017 ft 449 kts 300°
2026-05-07 20:13 49.09158 18.83030 32047 ft 449 kts 300°
2026-05-07 20:14 49.12862 18.75342 32009 ft 451 kts 300°
2026-05-07 20:14 49.16578 18.67606 32013 ft 452 kts 300°
2026-05-07 20:15 49.20289 18.59870 32012 ft 451 kts 300°
2026-05-07 20:15 49.23994 18.52123 31992 ft 451 kts 300°
2026-05-07 20:16 49.27692 18.44361 31995 ft 450 kts 300°
2026-05-07 20:16 49.31373 18.36613 31998 ft 450 kts 300°
2026-05-07 20:17 49.35054 18.28847 32002 ft 450 kts 300°
2026-05-07 20:17 49.38700 18.21131 32003 ft 450 kts 300°
2026-05-07 20:18 49.42367 18.13345 32033 ft 450 kts 300°
2026-05-07 20:18 49.46025 18.05554 32009 ft 449 kts 301°
2026-05-07 20:19 49.49702 17.97695 32016 ft 451 kts 301°
2026-05-07 20:19 49.53348 17.89887 32013 ft 452 kts 301°
2026-05-07 20:20 49.57011 17.82021 32011 ft 452 kts 301°
2026-05-07 20:20 49.60666 17.74148 32006 ft 452 kts 301°
2026-05-07 20:21 49.64316 17.66261 32006 ft 452 kts 300°
2026-05-07 20:21 49.67961 17.58360 32007 ft 452 kts 300°
2026-05-07 20:22 49.71600 17.50446 32006 ft 452 kts 300°
2026-05-07 20:22 49.75233 17.42526 32012 ft 452 kts 300°
2026-05-07 20:23 49.78852 17.34614 32007 ft 450 kts 300°
2026-05-07 20:23 49.82457 17.26708 32010 ft 449 kts 300°
2026-05-07 20:24 49.86052 17.18799 32008 ft 449 kts 300°
2026-05-07 20:24 49.89640 17.10882 32015 ft 449 kts 300°
2026-05-07 20:25 49.93223 17.02954 32024 ft 449 kts 300°
2026-05-07 20:25 49.96787 16.95048 32018 ft 445 kts 300°
2026-05-07 20:26 50.00325 16.87171 32019 ft 444 kts 300°
2026-05-07 20:26 50.03857 16.79281 32016 ft 444 kts 300°
2026-05-07 20:27 50.07384 16.71380 32017 ft 444 kts 300°
2026-05-07 20:27 50.10900 16.63478 32027 ft 444 kts 300°
2026-05-07 20:28 50.14403 16.55586 32022 ft 442 kts 300°
2026-05-07 20:28 50.17895 16.47698 32019 ft 443 kts 300°
2026-05-07 20:29 50.21399 16.39750 32018 ft 444 kts 300°
2026-05-07 20:29 50.24900 16.31791 32014 ft 444 kts 300°
2026-05-07 20:30 50.28390 16.23831 32018 ft 442 kts 300°
2026-05-07 20:30 50.31849 16.15920 32021 ft 440 kts 300°
2026-05-07 20:31 50.35300 16.08003 32022 ft 440 kts 300°
2026-05-07 20:31 50.38745 16.00076 32013 ft 440 kts 300°
2026-05-07 20:32 50.42185 15.92133 32015 ft 440 kts 300°
2026-05-07 20:32 50.45610 15.84202 32020 ft 438 kts 301°
2026-05-07 20:33 50.49015 15.76298 32020 ft 437 kts 301°
2026-05-07 20:33 50.52409 15.68393 32020 ft 438 kts 301°
2026-05-07 20:34 50.55242 15.61773 32015 ft 440 kts 301°
2026-05-07 20:34 50.58651 15.53788 32023 ft 440 kts 301°
2026-05-07 20:35 50.62581 15.44481 32027 ft 438 kts 298°
2026-05-07 20:35 50.64732 15.37261 32032 ft 434 kts 288°
2026-05-07 20:36 50.66750 15.28319 32029 ft 433 kts 287°
2026-05-07 20:36 50.68713 15.19334 32030 ft 433 kts 287°
2026-05-07 20:37 50.70662 15.10347 32054 ft 433 kts 287°
2026-05-07 20:37 50.72601 15.01353 32041 ft 432 kts 287°
2026-05-07 20:38 50.74517 14.92434 32048 ft 432 kts 287°
2026-05-07 20:38 50.76440 14.83441 32045 ft 432 kts 287°
2026-05-07 20:39 50.78356 14.74439 32058 ft 432 kts 287°
2026-05-07 20:39 50.80263 14.65440 32059 ft 432 kts 288°
2026-05-07 20:40 50.82159 14.56451 32057 ft 430 kts 288°
2026-05-07 20:40 50.83100 14.51973 31932 ft 428 kts 288°
2026-05-07 20:40 50.84035 14.47517 31449 ft 424 kts 288°
2026-05-07 20:40 50.84956 14.43116 31199 ft 419 kts 288°
2026-05-07 20:41 50.85869 14.38747 30954 ft 418 kts 288°
2026-05-07 20:41 50.86778 14.34386 30706 ft 416 kts 288°
2026-05-07 20:41 50.87682 14.30039 30458 ft 415 kts 288°
2026-05-07 20:41 50.88579 14.25715 30228 ft 412 kts 288°
2026-05-07 20:42 50.89470 14.21412 29951 ft 410 kts 289°
2026-05-07 20:42 50.90354 14.17132 29649 ft 406 kts 289°
2026-05-07 20:42 50.91227 14.12896 29364 ft 404 kts 289°
2026-05-07 20:42 50.92096 14.08672 29078 ft 402 kts 289°
2026-05-07 20:43 50.92958 14.04475 28809 ft 400 kts 289°
2026-05-07 20:43 50.93817 14.00284 28538 ft 399 kts 289°
2026-05-07 20:43 50.94671 13.96111 28262 ft 397 kts 289°
2026-05-07 20:43 50.95518 13.91958 27997 ft 395 kts 289°
2026-05-07 20:44 50.96362 13.87811 27728 ft 394 kts 289°
2026-05-07 20:44 50.97201 13.83683 27461 ft 392 kts 289°
2026-05-07 20:44 50.98035 13.79570 27195 ft 391 kts 289°
2026-05-07 20:44 50.98866 13.75464 26928 ft 390 kts 289°
2026-05-07 20:45 50.99689 13.71387 26675 ft 388 kts 289°
2026-05-07 20:45 51.00510 13.67307 26422 ft 387 kts 289°
2026-05-07 20:45 51.01327 13.63245 26163 ft 386 kts 289°
2026-05-07 20:45 51.02142 13.59182 25904 ft 386 kts 289°
2026-05-07 20:46 51.02955 13.55120 25650 ft 386 kts 289°
2026-05-07 20:46 51.03767 13.51059 25399 ft 385 kts 289°
2026-05-07 20:46 51.04570 13.47031 25109 ft 379 kts 289°
2026-05-07 20:46 51.05361 13.43052 24669 ft 378 kts 289°
2026-05-07 20:47 51.06153 13.39066 24154 ft 378 kts 289°
2026-05-07 20:47 51.06942 13.35084 23631 ft 378 kts 289°
2026-05-07 20:47 51.07729 13.31102 23074 ft 376 kts 289°
2026-05-07 20:47 51.08509 13.27152 22575 ft 374 kts 289°
2026-05-07 20:48 51.09283 13.23221 22058 ft 371 kts 289°
2026-05-07 20:48 51.10054 13.19301 21544 ft 370 kts 289°
2026-05-07 20:48 51.10818 13.15409 21046 ft 367 kts 288°
2026-05-07 20:48 51.11575 13.11541 20523 ft 366 kts 288°
2026-05-07 20:49 51.12329 13.07685 20046 ft 364 kts 288°
2026-05-07 20:49 51.13078 13.03843 19543 ft 363 kts 288°
2026-05-07 20:49 51.13824 13.00011 19027 ft 362 kts 288°
2026-05-07 20:49 51.14566 12.96189 18521 ft 361 kts 287°
2026-05-07 20:50 51.15303 12.92389 17986 ft 359 kts 287°
2026-05-07 20:50 51.16035 12.88600 17491 ft 355 kts 288°
2026-05-07 20:50 51.16757 12.84860 17005 ft 352 kts 288°
2026-05-07 20:50 51.17563 12.81203 16543 ft 348 kts 292°
2026-05-07 20:51 51.18475 12.77666 16143 ft 343 kts 293°
2026-05-07 20:51 51.19394 12.74178 15682 ft 340 kts 293°
2026-05-07 20:51 51.20305 12.70719 15192 ft 337 kts 293°
2026-05-07 20:51 51.21208 12.67283 14742 ft 335 kts 292°
2026-05-07 20:52 51.22105 12.63863 14264 ft 333 kts 292°
2026-05-07 20:52 51.22996 12.60455 13766 ft 332 kts 292°
2026-05-07 20:52 51.23881 12.57065 13271 ft 329 kts 292°
2026-05-07 20:52 51.24742 12.53760 12832 ft 325 kts 292°
2026-05-07 20:53 51.25512 12.50350 12368 ft 321 kts 283°
2026-05-07 20:53 51.25690 12.46871 11943 ft 318 kts 269°
2026-05-07 20:53 51.25559 12.43318 11476 ft 315 kts 267°
2026-05-07 20:53 51.25390 12.39880 11025 ft 314 kts 266°
2026-05-07 20:54 51.25220 12.36424 10558 ft 312 kts 266°
2026-05-07 20:54 51.25054 12.32980 10113 ft 310 kts 266°
2026-05-07 20:54 51.24891 12.29560 9633 ft 308 kts 266°
2026-05-07 20:54 51.24862 12.26162 9120 ft 306 kts 277°
2026-05-07 20:55 51.25264 12.22849 8628 ft 303 kts 284°
2026-05-07 20:55 51.25786 12.19597 8147 ft 302 kts 285°
2026-05-07 20:55 51.26317 12.16367 7662 ft 300 kts 285°
2026-05-07 20:55 51.26841 12.13148 7187 ft 299 kts 285°
2026-05-07 20:56 51.27359 12.09942 6721 ft 298 kts 285°
2026-05-07 20:56 51.27872 12.06746 6243 ft 296 kts 285°
2026-05-07 20:56 51.28367 12.03565 5775 ft 294 kts 282°
2026-05-07 20:56 51.28512 12.00327 5377 ft 292 kts 268°
2026-05-07 20:57 51.28378 11.97105 5190 ft 291 kts 266°
2026-05-07 20:57 51.28210 11.93871 5028 ft 292 kts 265°
2026-05-07 20:57 51.28041 11.90635 4975 ft 292 kts 265°
2026-05-07 20:57 51.27875 11.87398 4983 ft 293 kts 265°
2026-05-07 20:58 51.27820 11.84177 4969 ft 285 kts 275°
2026-05-07 20:58 51.28253 11.81207 4974 ft 266 kts 294°
2026-05-07 20:58 51.29218 11.78814 4973 ft 249 kts 315°
2026-05-07 20:58 51.30572 11.77266 4938 ft 235 kts 337°
2026-05-07 20:59 51.32126 11.76640 4730 ft 230 kts 359°
2026-05-07 20:59 51.33678 11.77080 4514 ft 228 kts 27°
2026-05-07 20:59 51.34875 11.78692 4361 ft 226 kts 51°
2026-05-07 20:59 51.35822 11.80707 4181 ft 227 kts 54°
2026-05-07 21:00 51.36741 11.82770 4029 ft 227 kts 54°
2026-05-07 21:00 51.37660 11.84818 3915 ft 227 kts 54°
2026-05-07 21:00 51.38585 11.86859 3776 ft 226 kts 54°
2026-05-07 21:00 51.39392 11.89008 3647 ft 226 kts 67°
2026-05-07 21:01 51.39784 11.91391 3547 ft 216 kts 82°
2026-05-07 21:01 51.39902 11.93707 3454 ft 204 kts 86°
2026-05-07 21:01 51.39998 11.95975 3267 ft 204 kts 85°
2026-05-07 21:01 51.40103 11.98246 2931 ft 202 kts 85°
2026-05-07 21:02 51.40205 12.00420 2585 ft 193 kts 85°
2026-05-07 21:02 51.40289 12.02558 2151 ft 191 kts 86°
2026-05-07 21:02 51.40343 12.04630 1884 ft 180 kts 85°
2026-05-07 21:02 51.40434 12.06544 1693 ft 165 kts 83°
2026-05-07 21:03 51.40553 12.08266 1514 ft 146 kts 81°
2026-05-07 21:03 51.40667 12.09801 1233 ft 135 kts 83°
2026-05-07 21:03 51.40740 12.11275 1045 ft 137 kts 85°
2026-05-07 21:03 51.40796 12.12867 994 ft 143 kts 86°
2026-05-07 21:04 51.40859 12.14419 930 ft 141 kts 84°
2026-05-07 21:04 51.40944 12.16001 917 ft 141 kts 84°
2026-05-07 21:04 51.41008 12.17545 843 ft 140 kts 85°
2026-05-07 21:04 51.41071 12.19106 675 ft 140 kts 84°
2026-05-07 21:05 51.41164 12.20645 500 ft 139 kts 83°
2026-05-07 21:05 51.41238 12.22135 461 ft 118 kts 87°
2026-05-07 21:05 51.41286 12.23173 468 ft 74 kts 88°
2026-05-07 21:05 51.41309 12.23826 473 ft 38 kts 97°
2026-05-07 21:06 51.41242 12.24169 471 ft 26 kts 115°
2026-05-07 21:06 51.41195 12.24322 472 ft 12 kts 116°
2026-05-07 21:06 51.41150 12.24390 472 ft 8 kts 166°
2026-05-07 21:06 51.41095 12.24364 469 ft 9 kts 214°
2026-05-07 21:07 51.41074 12.24286 466 ft 7 kts 268°
2026-05-07 21:07 51.41052 12.24223 468 ft 7 kts 205°
2026-05-07 21:07 51.40991 12.24222 472 ft 11 kts 174°
2026-05-07 21:07 51.40934 12.24248 467 ft 3 kts 120°
2026-05-07 21:08 51.40933 12.24276 469 ft 3 kts 90°
2026-05-07 21:08 51.40934 12.24306 471 ft 2 kts 86°
2026-05-07 21:08 51.40934 12.24320 471 ft 2 kts 86°
2026-05-07 21:08 51.40935 12.24336 469 ft 0 kts 86°